星链-36328(STARLINK-36328)

导读

STARLINK-36328(NORAD编号68096)是SpaceX星链(Starlink)低轨互联网星座的组网卫星之一,属于SpaceX大规模星座部署计划的组成部分。星链项目旨在打造全球覆盖的低轨卫星互联网,填补偏远地区网络覆盖空白,该卫星运行于近地轨道,为全球用户提供宽带互联网接入服务。 2026年SpaceX计划将包括STARLINK-36328在内的约4400颗星链卫星轨道高度从550公里降至480公里,以提升太空运行安全,降低碰撞风险和减少太空碎片,应对近地轨道拥挤问题。

基本信息
目录编号:
68096
目录名称:
STARLINK-36328
国际标识:
2026-042AD
轨道中心:
EARTH
卫星名称:
星链-36328
卫星全名:
星链-36328(STARLINK-36328)
卫星状态:
在轨 (已飞行185 天)
发射日期:
2026-03-04 UTC
国别 :
美国 (US)
星等 :
--
轨道信息
数据来源 国际轨道数据
星历时间: 2026-09-05T02:47:41+0800
17小时前
查看轨道信息
半长轴: 6840.856km
偏心率: 0.0001268
轨道倾角: 53.158°
近地点辐角 93.126°
升交点赤经 63.407°
平近点角 266.988°
近地点: 461.851km
远地点: 463.587km
周期: 93.848分钟
每日圈数: 15.343949
详细信息
固有亮度:
5
最大亮度:
2.5
卫星平台:
Starlink V1.0
覆盖范围:
全球
运营商:
太空探索技术公司
运营商所在国:
美国
制造商(研发单位):
太空探索技术公司
制造商所在国:
美国
使用方式:
暂无
卫星简介
Starlink 计划是 SpaceX 推出的全球卫星互联网项目,通过发射低轨道卫星,为全球尤其是偏远地区提供高速、低延迟的互联网服务。自 2019 年起,Starlink 已部署数千颗卫星,旨在缩小全球数字鸿沟,推动互联网普及。该项目还为军事、航空等行业提供通信支持,带来广泛经济效益。
2D轨道图
3D轨道图
轨道高度分析图
轨道倾角分析图
轨道综合分析图
查看轨道综合分析图
交会数据列表
事件ID 空间交会对象 最接近时刻(TCA) 交会距离 交会风险概率(CRP) 交会风险指数(CRI) 操作
CDM_260907-010604-793706-809624
OBJECT F (47937)
2026-09-07T
01:06:38+0000
1.837 km
极远距离
3.099321E-6 低风险 0.45
CDM_260906-102104-944506-809622
2026-09-06T
10:21:05+0000
2.997 km
极远距离
8.299193E-7 极低风险 0.33